contact:dominique.lefevre@mio.osupytheas.fr, maurice.libes@osupytheas.fr, didier.mallarino@osupytheas.fr
Project:EMSO http://www.emso-fr.org/EMSO-France
Depth: 2436.0 m
Title:EMSO Ligure Ouest : Data MII capteur MICROCAT
DateTime_Computer,Latitude,Longitude,Temperature,Conductivity,Pressure,DateTime_Instrument
DateTime_Computer,Latitude,Longitude,degC,S m-1,dbar,DateTime_Instrument
2020-12-01T00:00:25Z,42.805,6.029,13.2984,4.59983,2470.203,2020-12-01T02:01:23Z
2020-12-01T00:03:28Z,42.805,6.029,13.2983,4.59983,2470.203,2020-12-01T02:04:26Z
2020-12-01T00:06:31Z,42.805,6.029,13.2983,4.59984,2470.18,2020-12-01T02:07:29Z
2020-12-01T00:09:34Z,42.805,6.029,13.2986,4.59986,2470.18,2020-12-01T02:10:32Z
2020-12-01T00:12:38Z,42.805,6.029,13.2978,4.59983,2470.194,2020-12-01T02:13:35Z
2020-12-01T00:15:41Z,42.805,6.029,13.2981,4.59983,2470.217,2020-12-01T02:16:38Z
2020-12-01T00:18:44Z,42.805,6.029,13.2983,4.59984,2470.156,2020-12-01T02:19:42Z
2020-12-01T00:21:47Z,42.805,6.029,13.2980,4.59984,2470.203,2020-12-01T02:22:45Z
2020-12-01T00:24:50Z,42.805,6.029,13.2983,4.59984,2470.203,2020-12-01T02:25:48Z
2020-12-01T00:27:53Z,42.805,6.029,13.2983,4.59984,2470.217,2020-12-01T02:28:51Z
2020-12-01T00:30:56Z,42.805,6.029,13.2980,4.59983,2470.194,2020-12-01T02:31:54Z
2020-12-01T00:33:59Z,42.805,6.029,13.2982,4.59984,2470.203,2020-12-01T02:34:57Z
2020-12-01T00:37:03Z,42.805,6.029,13.2983,4.59984,2470.18,2020-12-01T02:38:00Z
2020-12-01T00:40:06Z,42.805,6.029,13.2983,4.59984,2470.18,2020-12-01T02:41:03Z
2020-12-01T00:43:09Z,42.805,6.029,13.2982,4.59985,2470.18,2020-12-01T02:44:07Z
2020-12-01T00:46:12Z,42.805,6.029,13.2982,4.59984,2470.156,2020-12-01T02:47:10Z
2020-12-01T00:49:15Z,42.805,6.029,13.2980,4.59984,2470.18,2020-12-01T02:50:13Z
2020-12-01T00:52:18Z,42.805,6.029,13.2980,4.59985,2470.156,2020-12-01T02:53:16Z
2020-12-01T00:55:21Z,42.805,6.029,13.2985,4.59983,2470.203,2020-12-01T02:56:19Z
2020-12-01T00:58:24Z,42.805,6.029,13.2978,4.59984,2470.18,2020-12-01T02:59:22Z
2020-12-01T01:01:27Z,42.805,6.029,13.2985,4.59984,2470.18,2020-12-01T03:02:25Z
2020-12-01T01:04:31Z,42.805,6.029,13.2986,4.59984,2470.194,2020-12-01T03:05:28Z
2020-12-01T01:07:34Z,42.805,6.029,13.2982,4.59984,2470.18,2020-12-01T03:08:31Z
2020-12-01T01:10:37Z,42.805,6.029,13.2983,4.59984,2470.156,2020-12-01T03:11:35Z
2020-12-01T01:13:40Z,42.805,6.029,13.2979,4.59984,2470.156,2020-12-01T03:14:38Z
2020-12-01T01:16:43Z,42.805,6.029,13.2979,4.59984,2470.156,2020-12-01T03:17:41Z
2020-12-01T01:19:46Z,42.805,6.029,13.2979,4.59984,2470.194,2020-12-01T03:20:44Z
2020-12-01T01:22:49Z,42.805,6.029,13.2984,4.59983,2470.18,2020-12-01T03:23:47Z
2020-12-01T01:25:52Z,42.805,6.029,13.2979,4.59985,2470.194,2020-12-01T03:26:50Z
2020-12-01T01:28:56Z,42.805,6.029,13.2982,4.59984,2470.156,2020-12-01T03:29:53Z
2020-12-01T01:31:59Z,42.805,6.029,13.2980,4.59986,2470.194,2020-12-01T03:32:56Z
2020-12-01T01:35:02Z,42.805,6.029,13.2978,4.59984,2470.156,2020-12-01T03:36:00Z
2020-12-01T01:38:05Z,42.805,6.029,13.2980,4.59984,2470.156,2020-12-01T03:39:03Z
2020-12-01T01:41:08Z,42.805,6.029,13.2982,4.59985,2470.18,2020-12-01T03:42:06Z
2020-12-01T01:44:11Z,42.805,6.029,13.2983,4.59983,2470.166,2020-12-01T03:45:09Z
2020-12-01T01:47:14Z,42.805,6.029,13.2982,4.59984,2470.171,2020-12-01T03:48:12Z
2020-12-01T01:50:17Z,42.805,6.029,13.2978,4.59984,2470.18,2020-12-01T03:51:15Z
2020-12-01T01:53:20Z,42.805,6.029,13.2979,4.59985,2470.156,2020-12-01T03:54:18Z
2020-12-01T01:56:24Z,42.805,6.029,13.2982,4.59983,2470.18,2020-12-01T03:57:21Z
2020-12-01T01:59:27Z,42.805,6.029,13.2981,4.59984,2470.171,2020-12-01T04:00:24Z
2020-12-01T02:02:30Z,42.805,6.029,13.2982,4.59984,2470.194,2020-12-01T04:03:28Z
2020-12-01T02:05:33Z,42.805,6.029,13.2982,4.59985,2470.18,2020-12-01T04:06:31Z
2020-12-01T02:08:36Z,42.805,6.029,13.2982,4.59984,2470.194,2020-12-01T04:09:34Z
2020-12-01T02:11:39Z,42.805,6.029,13.2984,4.59985,2470.194,2020-12-01T04:12:37Z
2020-12-01T02:14:42Z,42.805,6.029,13.2986,4.59984,2470.217,2020-12-01T04:15:40Z
2020-12-01T02:17:45Z,42.805,6.029,13.2982,4.59983,2470.18,2020-12-01T04:18:43Z
2020-12-01T02:20:49Z,42.805,6.029,13.2982,4.59984,2470.194,2020-12-01T04:21:46Z
2020-12-01T02:23:52Z,42.805,6.029,13.2979,4.59985,2470.18,2020-12-01T04:24:49Z
2020-12-01T02:26:55Z,42.805,6.029,13.2981,4.59984,2470.156,2020-12-01T04:27:53Z
2020-12-01T02:29:58Z,42.805,6.029,13.2982,4.59984,2470.156,2020-12-01T04:30:56Z
2020-12-01T02:33:01Z,42.805,6.029,13.2980,4.59984,2470.156,2020-12-01T04:33:59Z
2020-12-01T02:36:04Z,42.805,6.029,13.2979,4.59985,2470.18,2020-12-01T04:37:02Z
2020-12-01T02:39:07Z,42.805,6.029,13.2983,4.59985,2470.18,2020-12-01T04:40:05Z
2020-12-01T02:42:10Z,42.805,6.029,13.2983,4.59986,2470.194,2020-12-01T04:43:08Z
2020-12-01T02:45:13Z,42.805,6.029,13.2981,4.59984,2470.194,2020-12-01T04:46:11Z
2020-12-01T02:48:17Z,42.805,6.029,13.2982,4.59984,2470.18,2020-12-01T04:49:14Z
2020-12-01T02:51:20Z,42.805,6.029,13.2979,4.59986,2470.18,2020-12-01T04:52:17Z
2020-12-01T02:54:23Z,42.805,6.029,13.2980,4.59985,2470.203,2020-12-01T04:55:21Z
2020-12-01T02:57:26Z,42.805,6.029,13.2979,4.59984,2470.171,2020-12-01T04:58:24Z
2020-12-01T03:00:29Z,42.805,6.029,13.2979,4.59984,2470.217,2020-12-01T05:01:27Z
2020-12-01T03:03:32Z,42.805,6.029,13.2979,4.59984,2470.18,2020-12-01T05:04:30Z
2020-12-01T03:06:35Z,42.805,6.029,13.2983,4.59983,2470.18,2020-12-01T05:07:33Z
2020-12-01T03:09:38Z,42.805,6.029,13.2982,4.59983,2470.194,2020-12-01T05:10:36Z
2020-12-01T03:12:41Z,42.805,6.029,13.2983,4.59984,2470.194,2020-12-01T05:13:39Z
2020-12-01T03:15:45Z,42.805,6.029,13.2983,4.59985,2470.194,2020-12-01T05:16:42Z
2020-12-01T03:18:48Z,42.805,6.029,13.2979,4.59984,2470.171,2020-12-01T05:19:46Z
2020-12-01T03:21:51Z,42.805,6.029,13.2984,4.59984,2470.217,2020-12-01T05:22:49Z
2020-12-01T03:24:54Z,42.805,6.029,13.2979,4.59984,2470.194,2020-12-01T05:25:52Z
2020-12-01T03:27:57Z,42.805,6.029,13.2982,4.59984,2470.18,2020-12-01T05:28:55Z
2020-12-01T03:31:00Z,42.805,6.029,13.2982,4.59984,2470.18,2020-12-01T05:31:58Z
2020-12-01T03:34:03Z,42.805,6.029,13.2980,4.59984,2470.203,2020-12-01T05:35:01Z
2020-12-01T03:37:06Z,42.805,6.029,13.2980,4.59985,2470.203,2020-12-01T05:38:04Z
2020-12-01T03:40:10Z,42.805,6.029,13.2980,4.59985,2470.203,2020-12-01T05:41:07Z
2020-12-01T03:43:13Z,42.805,6.029,13.2984,4.59985,2470.227,2020-12-01T05:44:10Z
2020-12-01T03:46:16Z,42.805,6.029,13.2977,4.59983,2470.227,2020-12-01T05:47:14Z
2020-12-01T03:49:19Z,42.805,6.029,13.2984,4.59985,2470.18,2020-12-01T05:50:17Z
2020-12-01T03:52:22Z,42.805,6.029,13.2983,4.59986,2470.203,2020-12-01T05:53:20Z
2020-12-01T03:55:25Z,42.805,6.029,13.2986,4.59984,2470.203,2020-12-01T05:56:23Z
2020-12-01T03:58:28Z,42.805,6.029,13.2983,4.59985,2470.189,2020-12-01T05:59:26Z
2020-12-01T04:01:31Z,42.805,6.029,13.2983,4.59985,2470.189,2020-12-01T06:02:29Z
2020-12-01T04:04:34Z,42.805,6.029,13.2981,4.59985,2470.194,2020-12-01T06:05:32Z
2020-12-01T04:07:38Z,42.805,6.029,13.2983,4.59985,2470.24,2020-12-01T06:08:35Z
2020-12-01T04:10:41Z,42.805,6.029,13.2981,4.59985,2470.203,2020-12-01T06:11:38Z
2020-12-01T04:13:44Z,42.805,6.029,13.2982,4.59984,2470.217,2020-12-01T06:14:42Z
2020-12-01T04:16:47Z,42.805,6.029,13.2984,4.59984,2470.25,2020-12-01T06:17:45Z
2020-12-01T04:19:50Z,42.805,6.029,13.2983,4.59985,2470.264,2020-12-01T06:20:48Z
2020-12-01T04:22:53Z,42.805,6.029,13.2982,4.59984,2470.24,2020-12-01T06:23:51Z
2020-12-01T04:25:56Z,42.805,6.029,13.2983,4.59986,2470.24,2020-12-01T06:26:54Z
2020-12-01T04:28:59Z,42.805,6.029,13.2982,4.59985,2470.25,2020-12-01T06:29:57Z
2020-12-01T04:32:02Z,42.805,6.029,13.2980,4.59986,2470.24,2020-12-01T06:33:00Z
2020-12-01T04:35:06Z,42.805,6.029,13.2984,4.59985,2470.24,2020-12-01T06:36:03Z
2020-12-01T04:38:09Z,42.805,6.029,13.2983,4.59985,2470.25,2020-12-01T06:39:06Z
2020-12-01T04:41:12Z,42.805,6.029,13.2983,4.59986,2470.25,2020-12-01T06:42:10Z
2020-12-01T04:44:15Z,42.805,6.029,13.2982,4.59985,2470.25,2020-12-01T06:45:13Z
2020-12-01T04:47:18Z,42.805,6.029,13.2984,4.59986,2470.25,2020-12-01T06:48:16Z
2020-12-01T04:50:21Z,42.805,6.029,13.2983,4.59985,2470.297,2020-12-01T06:51:19Z
2020-12-01T04:53:24Z,42.805,6.029,13.2981,4.59986,2470.264,2020-12-01T06:54:22Z
2020-12-01T04:56:27Z,42.805,6.029,13.2982,4.59985,2470.273,2020-12-01T06:57:25Z
2020-12-01T04:59:31Z,42.805,6.029,13.2981,4.59986,2470.297,2020-12-01T07:00:28Z
2020-12-01T05:02:34Z,42.805,6.029,13.2979,4.59986,2470.273,2020-12-01T07:03:31Z
2020-12-01T05:05:37Z,42.805,6.029,13.2980,4.59986,2470.32,2020-12-01T07:06:35Z
2020-12-01T05:08:40Z,42.805,6.029,13.2982,4.59986,2470.297,2020-12-01T07:09:38Z
2020-12-01T05:11:43Z,42.805,6.029,13.2983,4.59986,2470.297,2020-12-01T07:12:41Z
2020-12-01T05:14:46Z,42.805,6.029,13.2982,4.59986,2470.297,2020-12-01T07:15:44Z
2020-12-01T05:17:49Z,42.805,6.029,13.2980,4.59986,2470.297,2020-12-01T07:18:47Z
2020-12-01T05:20:52Z,42.805,6.029,13.2983,4.59985,2470.297,2020-12-01T07:21:50Z
2020-12-01T05:23:55Z,42.805,6.029,13.2982,4.59986,2470.334,2020-12-01T07:24:53Z
2020-12-01T05:26:59Z,42.805,6.029,13.2984,4.59988,2470.297,2020-12-01T07:27:56Z
2020-12-01T05:30:02Z,42.805,6.029,13.2980,4.59986,2470.343,2020-12-01T07:30:59Z
2020-12-01T05:33:05Z,42.805,6.029,13.2983,4.59986,2470.31,2020-12-01T07:34:03Z
2020-12-01T05:36:08Z,42.805,6.029,13.2982,4.59986,2470.32,2020-12-01T07:37:06Z
2020-12-01T05:39:11Z,42.805,6.029,13.2982,4.59985,2470.31,2020-12-01T07:40:09Z
2020-12-01T05:42:14Z,42.805,6.029,13.2984,4.59985,2470.343,2020-12-01T07:43:12Z
2020-12-01T05:45:17Z,42.805,6.029,13.2981,4.59984,2470.334,2020-12-01T07:46:15Z
2020-12-01T05:48:20Z,42.805,6.029,13.2981,4.59986,2470.357,2020-12-01T07:49:18Z
2020-12-01T05:51:24Z,42.805,6.029,13.2976,4.59986,2470.334,2020-12-01T07:52:21Z
2020-12-01T05:54:27Z,42.805,6.029,13.2982,4.59985,2470.343,2020-12-01T07:55:24Z
2020-12-01T05:57:30Z,42.805,6.029,13.2983,4.59985,2470.38,2020-12-01T07:58:28Z
2020-12-01T06:00:33Z,42.805,6.029,13.2982,4.59986,2470.357,2020-12-01T08:01:31Z
2020-12-01T06:03:36Z,42.805,6.029,13.2982,4.59986,2470.334,2020-12-01T08:04:34Z
2020-12-01T06:06:39Z,42.805,6.029,13.2982,4.59986,2470.366,2020-12-01T08:07:37Z
2020-12-01T06:09:42Z,42.805,6.029,13.2980,4.59986,2470.357,2020-12-01T08:10:40Z
2020-12-01T06:12:45Z,42.805,6.029,13.2982,4.59986,2470.38,2020-12-01T08:13:43Z
2020-12-01T06:15:48Z,42.805,6.029,13.2981,4.59986,2470.32,2020-12-01T08:16:46Z
2020-12-01T06:18:52Z,42.805,6.029,13.2986,4.59986,2470.343,2020-12-01T08:19:49Z
2020-12-01T06:21:55Z,42.805,6.029,13.2983,4.59986,2470.32,2020-12-01T08:22:52Z
2020-12-01T06:24:58Z,42.805,6.029,13.2983,4.59985,2470.343,2020-12-01T08:25:56Z
2020-12-01T06:28:01Z,42.805,6.029,13.2983,4.59986,2470.357,2020-12-01T08:28:59Z
2020-12-01T06:31:04Z,42.805,6.029,13.2984,4.59988,2470.353,2020-12-01T08:32:02Z
2020-12-01T06:34:07Z,42.805,6.029,13.2983,4.59986,2470.366,2020-12-01T08:35:05Z
2020-12-01T06:37:10Z,42.805,6.029,13.2983,4.59986,2470.366,2020-12-01T08:38:08Z
2020-12-01T06:40:13Z,42.805,6.029,13.2981,4.59986,2470.404,2020-12-01T08:41:11Z
2020-12-01T06:43:17Z,42.805,6.029,13.2986,4.59986,2470.343,2020-12-01T08:44:14Z
2020-12-01T06:46:20Z,42.805,6.029,13.2981,4.59985,2470.343,2020-12-01T08:47:17Z
2020-12-01T06:49:23Z,42.805,6.029,13.2980,4.59986,2470.366,2020-12-01T08:50:21Z
2020-12-01T06:52:26Z,42.805,6.029,13.2982,4.59986,2470.343,2020-12-01T08:53:24Z
2020-12-01T06:55:29Z,42.805,6.029,13.2981,4.59986,2470.366,2020-12-01T08:56:27Z
2020-12-01T06:58:32Z,42.805,6.029,13.2982,4.59986,2470.366,2020-12-01T08:59:30Z
2020-12-01T07:01:35Z,42.805,6.029,13.2984,4.59986,2470.366,2020-12-01T09:02:33Z
2020-12-01T07:04:38Z,42.805,6.029,13.2979,4.59986,2470.404,2020-12-01T09:05:36Z
2020-12-01T07:07:41Z,42.805,6.029,13.2979,4.59986,2470.39,2020-12-01T09:08:39Z
2020-12-01T07:10:45Z,42.805,6.029,13.2982,4.59986,2470.39,2020-12-01T09:11:42Z
2020-12-01T07:13:48Z,42.805,6.029,13.2982,4.59986,2470.366,2020-12-01T09:14:45Z
2020-12-01T07:16:51Z,42.805,6.029,13.2982,4.59986,2470.39,2020-12-01T09:17:49Z
2020-12-01T07:19:54Z,42.805,6.029,13.2983,4.59986,2470.39,2020-12-01T09:20:52Z
2020-12-01T07:22:57Z,42.805,6.029,13.2984,4.59986,2470.38,2020-12-01T09:23:55Z
2020-12-01T07:26:00Z,42.805,6.029,13.2982,4.59986,2470.343,2020-12-01T09:26:58Z
2020-12-01T07:29:03Z,42.805,6.029,13.2982,4.59985,2470.38,2020-12-01T09:30:01Z
2020-12-01T07:32:06Z,42.805,6.029,13.2983,4.59986,2470.404,2020-12-01T09:33:04Z
2020-12-01T07:35:10Z,42.805,6.029,13.2982,4.59986,2470.404,2020-12-01T09:36:07Z
2020-12-01T07:38:13Z,42.805,6.029,13.2982,4.59986,2470.38,2020-12-01T09:39:10Z
2020-12-01T07:41:16Z,42.805,6.029,13.2983,4.59987,2470.404,2020-12-01T09:42:14Z
2020-12-01T07:44:19Z,42.805,6.029,13.2980,4.59986,2470.39,2020-12-01T09:45:17Z
2020-12-01T07:47:22Z,42.805,6.029,13.2981,4.59986,2470.366,2020-12-01T09:48:20Z
2020-12-01T07:50:25Z,42.805,6.029,13.2979,4.59986,2470.366,2020-12-01T09:51:23Z
2020-12-01T07:53:28Z,42.805,6.029,13.2983,4.59986,2470.366,2020-12-01T09:54:26Z
2020-12-01T07:56:31Z,42.805,6.029,13.2984,4.59986,2470.38,2020-12-01T09:57:29Z
2020-12-01T07:59:34Z,42.805,6.029,13.2983,4.59986,2470.39,2020-12-01T10:00:32Z
2020-12-01T08:02:38Z,42.805,6.029,13.2983,4.59986,2470.39,2020-12-01T10:03:35Z
2020-12-01T08:05:41Z,42.805,6.029,13.2981,4.59986,2470.427,2020-12-01T10:06:39Z
2020-12-01T08:08:44Z,42.805,6.029,13.2985,4.59986,2470.39,2020-12-01T10:09:42Z
2020-12-01T08:11:47Z,42.805,6.029,13.2982,4.59986,2470.39,2020-12-01T10:12:45Z
2020-12-01T08:14:50Z,42.805,6.029,13.2983,4.59986,2470.366,2020-12-01T10:15:48Z
2020-12-01T08:17:53Z,42.805,6.029,13.2981,4.59986,2470.39,2020-12-01T10:18:51Z
2020-12-01T08:20:56Z,42.805,6.029,13.2983,4.59986,2470.353,2020-12-01T10:21:54Z
2020-12-01T08:23:59Z,42.805,6.029,13.2982,4.59985,2470.427,2020-12-01T10:24:57Z
2020-12-01T08:27:03Z,42.805,6.029,13.2986,4.59986,2470.39,2020-12-01T10:28:00Z
2020-12-01T08:30:06Z,42.805,6.029,13.2982,4.59986,2470.376,2020-12-01T10:31:03Z
2020-12-01T08:33:09Z,42.805,6.029,13.2981,4.59986,2470.366,2020-12-01T10:34:07Z
2020-12-01T08:36:12Z,42.805,6.029,13.2984,4.59986,2470.357,2020-12-01T10:37:10Z
2020-12-01T08:39:15Z,42.805,6.029,13.2982,4.59986,2470.39,2020-12-01T10:40:13Z
2020-12-01T08:42:18Z,42.805,6.029,13.2983,4.59986,2470.39,2020-12-01T10:43:16Z
2020-12-01T08:45:21Z,42.805,6.029,13.2982,4.59987,2470.343,2020-12-01T10:46:19Z
2020-12-01T08:48:24Z,42.805,6.029,13.2980,4.59987,2470.357,2020-12-01T10:49:22Z
2020-12-01T08:51:28Z,42.805,6.029,13.2984,4.59986,2470.366,2020-12-01T10:52:25Z
2020-12-01T08:54:31Z,42.805,6.029,13.2982,4.59985,2470.343,2020-12-01T10:55:28Z
2020-12-01T08:57:34Z,42.805,6.029,13.2981,4.59986,2470.343,2020-12-01T10:58:32Z
2020-12-01T09:00:37Z,42.805,6.029,13.2983,4.59986,2470.38,2020-12-01T11:01:35Z
2020-12-01T09:03:40Z,42.805,6.029,13.2983,4.59986,2470.39,2020-12-01T11:04:38Z
2020-12-01T09:06:43Z,42.805,6.029,13.2981,4.59986,2470.357,2020-12-01T11:07:41Z
2020-12-01T09:09:46Z,42.805,6.029,13.2983,4.59986,2470.343,2020-12-01T11:10:44Z
2020-12-01T09:12:49Z,42.805,6.029,13.2982,4.59986,2470.33,2020-12-01T11:13:47Z
2020-12-01T09:15:53Z,42.805,6.029,13.2979,4.59986,2470.32,2020-12-01T11:16:50Z
2020-12-01T09:18:56Z,42.805,6.029,13.2985,4.59986,2470.366,2020-12-01T11:19:53Z
2020-12-01T09:21:59Z,42.805,6.029,13.2985,4.59987,2470.343,2020-12-01T11:22:57Z
2020-12-01T09:25:02Z,42.805,6.029,13.2983,4.59986,2470.39,2020-12-01T11:26:00Z
2020-12-01T09:28:05Z,42.805,6.029,13.2979,4.59986,2470.297,2020-12-01T11:29:03Z
2020-12-01T09:31:08Z,42.805,6.029,13.2986,4.59986,2470.357,2020-12-01T11:32:06Z
2020-12-01T09:34:11Z,42.805,6.029,13.2985,4.59986,2470.357,2020-12-01T11:35:09Z
2020-12-01T09:37:14Z,42.805,6.029,13.2983,4.59986,2470.343,2020-12-01T11:38:12Z
2020-12-01T09:40:17Z,42.805,6.029,13.2982,4.59986,2470.31,2020-12-01T11:41:15Z
2020-12-01T09:43:21Z,42.805,6.029,13.2985,4.59986,2470.366,2020-12-01T11:44:18Z
2020-12-01T09:46:24Z,42.805,6.029,13.2985,4.59987,2470.32,2020-12-01T11:47:22Z
2020-12-01T09:49:27Z,42.805,6.029,13.2983,4.59986,2470.334,2020-12-01T11:50:25Z
2020-12-01T09:52:30Z,42.805,6.029,13.2982,4.59986,2470.334,2020-12-01T11:53:28Z
2020-12-01T09:55:33Z,42.805,6.029,13.2983,4.59986,2470.366,2020-12-01T11:56:31Z
2020-12-01T09:58:36Z,42.805,6.029,13.2983,4.59985,2470.306,2020-12-01T11:59:34Z
2020-12-01T10:01:39Z,42.805,6.029,13.2983,4.59986,2470.343,2020-12-01T12:02:37Z
2020-12-01T10:04:42Z,42.805,6.029,13.2983,4.59985,2470.38,2020-12-01T12:05:40Z
2020-12-01T10:07:46Z,42.805,6.029,13.2983,4.59986,2470.297,2020-12-01T12:08:43Z
2020-12-01T10:10:49Z,42.805,6.029,13.2983,4.59986,2470.343,2020-12-01T12:11:47Z
2020-12-01T10:13:52Z,42.805,6.029,13.2980,4.59985,2470.32,2020-12-01T12:14:50Z
2020-12-01T10:16:55Z,42.805,6.029,13.2985,4.59986,2470.32,2020-12-01T12:17:53Z
2020-12-01T10:19:58Z,42.805,6.029,13.2982,4.59986,2470.343,2020-12-01T12:20:56Z
2020-12-01T10:23:01Z,42.805,6.029,13.2983,4.59987,2470.32,2020-12-01T12:23:59Z
2020-12-01T10:26:04Z,42.805,6.029,13.2982,4.59986,2470.31,2020-12-01T12:27:02Z
2020-12-01T10:29:07Z,42.805,6.029,13.2986,4.59986,2470.334,2020-12-01T12:30:05Z
2020-12-01T10:32:11Z,42.805,6.029,13.2982,4.59986,2470.357,2020-12-01T12:33:08Z
2020-12-01T10:35:14Z,42.805,6.029,13.2982,4.59985,2470.297,2020-12-01T12:36:12Z
2020-12-01T10:38:17Z,42.805,6.029,13.2981,4.59986,2470.31,2020-12-01T12:39:15Z
2020-12-01T10:41:20Z,42.805,6.029,13.2982,4.59986,2470.32,2020-12-01T12:42:18Z
2020-12-01T10:44:23Z,42.805,6.029,13.2981,4.59986,2470.273,2020-12-01T12:45:21Z
2020-12-01T10:47:26Z,42.805,6.029,13.2982,4.59986,2470.32,2020-12-01T12:48:24Z
2020-12-01T10:50:29Z,42.805,6.029,13.2983,4.59985,2470.31,2020-12-01T12:51:27Z
2020-12-01T10:53:32Z,42.805,6.029,13.2983,4.59986,2470.287,2020-12-01T12:54:30Z
2020-12-01T10:56:36Z,42.805,6.029,13.2982,4.59985,2470.273,2020-12-01T12:57:33Z
2020-12-01T10:59:39Z,42.805,6.029,13.2984,4.59985,2470.32,2020-12-01T13:00:37Z
2020-12-01T11:02:42Z,42.805,6.029,13.2982,4.59984,2470.273,2020-12-01T13:03:40Z
2020-12-01T11:05:45Z,42.805,6.029,13.2981,4.59986,2470.297,2020-12-01T13:06:43Z
2020-12-01T11:08:48Z,42.805,6.029,13.2981,4.59986,2470.31,2020-12-01T13:09:46Z
2020-12-01T11:11:51Z,42.805,6.029,13.2981,4.59986,2470.297,2020-12-01T13:12:49Z
2020-12-01T11:14:54Z,42.805,6.029,13.2980,4.59986,2470.287,2020-12-01T13:15:52Z
2020-12-01T11:17:57Z,42.805,6.029,13.2983,4.59986,2470.31,2020-12-01T13:18:55Z
2020-12-01T11:21:01Z,42.805,6.029,13.2979,4.59985,2470.264,2020-12-01T13:21:58Z
2020-12-01T11:24:04Z,42.805,6.029,13.2981,4.59986,2470.31,2020-12-01T13:25:01Z
2020-12-01T11:27:07Z,42.805,6.029,13.2983,4.59985,2470.25,2020-12-01T13:28:05Z
2020-12-01T11:30:10Z,42.805,6.029,13.2983,4.59985,2470.287,2020-12-01T13:31:08Z
2020-12-01T11:33:13Z,42.805,6.029,13.2985,4.59986,2470.273,2020-12-01T13:34:11Z
2020-12-01T11:36:16Z,42.805,6.029,13.2983,4.59985,2470.273,2020-12-01T13:37:14Z
2020-12-01T11:39:19Z,42.805,6.029,13.2985,4.59985,2470.227,2020-12-01T13:40:17Z
2020-12-01T11:42:22Z,42.805,6.029,13.2981,4.59986,2470.25,2020-12-01T13:43:20Z
2020-12-01T11:45:26Z,42.805,6.029,13.2983,4.59985,2470.25,2020-12-01T13:46:23Z
2020-12-01T11:48:29Z,42.805,6.029,13.2983,4.59986,2470.273,2020-12-01T13:49:26Z
2020-12-01T11:51:32Z,42.805,6.029,13.2982,4.59986,2470.264,2020-12-01T13:52:30Z
2020-12-01T11:54:35Z,42.805,6.029,13.2981,4.59985,2470.264,2020-12-01T13:55:33Z
2020-12-01T11:57:38Z,42.805,6.029,13.2979,4.59985,2470.25,2020-12-01T13:58:36Z
2020-12-01T12:00:41Z,42.805,6.029,13.2983,4.59985,2470.25,2020-12-01T14:01:39Z
2020-12-01T12:03:44Z,42.805,6.029,13.2982,4.59985,2470.273,2020-12-01T14:04:42Z
2020-12-01T12:06:47Z,42.805,6.029,13.2985,4.59986,2470.264,2020-12-01T14:07:45Z
2020-12-01T12:09:51Z,42.805,6.029,13.2983,4.59986,2470.25,2020-12-01T14:10:48Z
2020-12-01T12:12:54Z,42.805,6.029,13.2986,4.59985,2470.273,2020-12-01T14:13:51Z
2020-12-01T12:15:57Z,42.805,6.029,13.2982,4.59986,2470.25,2020-12-01T14:16:55Z
2020-12-01T12:19:00Z,42.805,6.029,13.2984,4.59984,2470.264,2020-12-01T14:19:58Z
2020-12-01T12:22:03Z,42.805,6.029,13.2984,4.59984,2470.227,2020-12-01T14:23:01Z
2020-12-01T12:25:06Z,42.805,6.029,13.2984,4.59985,2470.25,2020-12-01T14:26:04Z
2020-12-01T12:28:09Z,42.805,6.029,13.2981,4.59986,2470.227,2020-12-01T14:29:07Z
2020-12-01T12:31:12Z,42.805,6.029,13.2979,4.59986,2470.24,2020-12-01T14:32:10Z
2020-12-01T12:34:16Z,42.805,6.029,13.2982,4.59986,2470.24,2020-12-01T14:35:13Z
2020-12-01T12:37:19Z,42.805,6.029,13.2981,4.59985,2470.203,2020-12-01T14:38:16Z
2020-12-01T12:40:22Z,42.805,6.029,13.2983,4.59985,2470.227,2020-12-01T14:41:20Z
2020-12-01T12:43:25Z,42.805,6.029,13.2978,4.59985,2470.227,2020-12-01T14:44:23Z
2020-12-01T12:46:28Z,42.805,6.029,13.2979,4.59985,2470.227,2020-12-01T14:47:26Z
2020-12-01T12:49:31Z,42.805,6.029,13.2987,4.59985,2470.25,2020-12-01T14:50:29Z
2020-12-01T12:52:34Z,42.805,6.029,13.2979,4.59986,2470.203,2020-12-01T14:53:32Z
2020-12-01T12:55:37Z,42.805,6.029,13.2983,4.59986,2470.203,2020-12-01T14:56:35Z
2020-12-01T12:58:40Z,42.805,6.029,13.2982,4.59985,2470.227,2020-12-01T14:59:38Z
2020-12-01T13:01:44Z,42.805,6.029,13.2983,4.59986,2470.24,2020-12-01T15:02:41Z
2020-12-01T13:04:47Z,42.805,6.029,13.2982,4.59984,2470.227,2020-12-01T15:05:45Z
2020-12-01T13:07:50Z,42.805,6.029,13.2983,4.59986,2470.227,2020-12-01T15:08:48Z
2020-12-01T13:10:53Z,42.805,6.029,13.2984,4.59985,2470.227,2020-12-01T15:11:51Z
2020-12-01T13:13:56Z,42.805,6.029,13.2983,4.59985,2470.227,2020-12-01T15:14:54Z
2020-12-01T13:16:59Z,42.805,6.029,13.2981,4.59985,2470.203,2020-12-01T15:17:57Z
2020-12-01T13:20:02Z,42.805,6.029,13.2983,4.59985,2470.217,2020-12-01T15:21:00Z
2020-12-01T13:23:05Z,42.805,6.029,13.2976,4.59985,2470.227,2020-12-01T15:24:03Z
2020-12-01T13:26:09Z,42.805,6.029,13.2980,4.59984,2470.203,2020-12-01T15:27:06Z
2020-12-01T13:29:12Z,42.805,6.029,13.2985,4.59985,2470.203,2020-12-01T15:30:09Z
2020-12-01T13:32:15Z,42.805,6.029,13.2980,4.59984,2470.203,2020-12-01T15:33:13Z
2020-12-01T13:35:18Z,42.805,6.029,13.2980,4.59984,2470.227,2020-12-01T15:36:16Z
2020-12-01T13:38:21Z,42.805,6.029,13.2982,4.59984,2470.18,2020-12-01T15:39:19Z
2020-12-01T13:41:24Z,42.805,6.029,13.2980,4.59984,2470.194,2020-12-01T15:42:22Z
2020-12-01T13:44:27Z,42.805,6.029,13.2982,4.59985,2470.217,2020-12-01T15:45:25Z
2020-12-01T13:47:30Z,42.805,6.029,13.2979,4.59985,2470.203,2020-12-01T15:48:28Z
2020-12-01T13:50:34Z,42.805,6.029,13.2984,4.59985,2470.194,2020-12-01T15:51:31Z
2020-12-01T13:53:37Z,42.805,6.029,13.2981,4.59985,2470.194,2020-12-01T15:54:34Z
2020-12-01T13:56:40Z,42.805,6.029,13.2980,4.59986,2470.194,2020-12-01T15:57:38Z
2020-12-01T13:59:43Z,42.805,6.029,13.2979,4.59984,2470.18,2020-12-01T16:00:41Z
2020-12-01T14:02:46Z,42.805,6.029,13.2983,4.59985,2470.171,2020-12-01T16:03:44Z
2020-12-01T14:05:49Z,42.805,6.029,13.2978,4.59985,2470.203,2020-12-01T16:06:47Z
2020-12-01T14:08:52Z,42.805,6.029,13.2986,4.59984,2470.18,2020-12-01T16:09:50Z
2020-12-01T14:11:55Z,42.805,6.029,13.2984,4.59984,2470.171,2020-12-01T16:12:53Z
2020-12-01T14:14:59Z,42.805,6.029,13.2985,4.59986,2470.18,2020-12-01T16:15:56Z
2020-12-01T14:18:02Z,42.805,6.029,13.2982,4.59984,2470.18,2020-12-01T16:18:59Z
2020-12-01T14:21:05Z,42.805,6.029,13.2981,4.59985,2470.18,2020-12-01T16:22:03Z
2020-12-01T14:24:08Z,42.805,6.029,13.2977,4.59984,2470.143,2020-12-01T16:25:06Z
2020-12-01T14:27:11Z,42.805,6.029,13.2984,4.59984,2470.194,2020-12-01T16:28:09Z
2020-12-01T14:30:14Z,42.805,6.029,13.2981,4.59986,2470.156,2020-12-01T16:31:12Z
2020-12-01T14:33:17Z,42.805,6.029,13.2982,4.59984,2470.18,2020-12-01T16:34:15Z
2020-12-01T14:36:20Z,42.805,6.029,13.2982,4.59985,2470.18,2020-12-01T16:37:18Z
2020-12-01T14:39:23Z,42.805,6.029,13.2982,4.59985,2470.18,2020-12-01T16:40:21Z
2020-12-01T14:42:27Z,42.805,6.029,13.2983,4.59985,2470.18,2020-12-01T16:43:24Z
2020-12-01T14:45:30Z,42.805,6.029,13.2980,4.59985,2470.217,2020-12-01T16:46:28Z
2020-12-01T14:48:33Z,42.805,6.029,13.2982,4.59985,2470.18,2020-12-01T16:49:31Z
2020-12-01T14:51:36Z,42.805,6.029,13.2979,4.59984,2470.156,2020-12-01T16:52:34Z
2020-12-01T14:54:39Z,42.805,6.029,13.2984,4.59984,2470.18,2020-12-01T16:55:37Z
2020-12-01T14:57:42Z,42.805,6.029,13.2983,4.59985,2470.217,2020-12-01T16:58:40Z
2020-12-01T15:00:45Z,42.805,6.029,13.2982,4.59984,2470.18,2020-12-01T17:01:43Z